Weather History for KPHF - September, 2012

Change the Weather History Date:

Thursday, September 20, 2012

  Actual Average Record
Temperature  
Mean Temperature 65 °F -  
Max Temperature 75 °F 81 °F 95 °F (1997)
Min Temperature 57 °F 63 °F 54 °F (2004)
Growing Degree Days 15 (Base 50)    
Moisture  
Dew Point 54 °F    
Average Humidity 72    
Maximum Humidity 90    
Minimum Humidity 44    
Precipitation  
Precipitation 0.00 in - - ()
Sea Level Pressure  
Sea Level Pressure 30.12 in    
Wind  
Wind Speed 3 mph (NNE)    
Max Wind Speed 8 mph    
Max Gust Speed -    
Visibility 10 miles    
Events      
Averages and records for this station are not official NWS values.
T = Trace of Precipitation, MM = Missing Value Source: NWS Daily Summary

Daily Weather History Graph

Daily Weather History Graph

Search for Another Location

Airport or City:

Trip Planner

Search our weather history database for the weather conditions in past years. The results will help you decide how hot, cold, wet, or windy it might be!

Date:

Astronomy

Sep. 20, 2012 Rise Set
Actual Time 6:52 AM EDT 7:05 PM EDT
Civil Twilight 6:26 AM EDT 7:31 PM EDT
Nautical Twilight 5:56 AM EDT 8:01 PM EDT
Astronomical Twilight 5:25 AM EDT 8:32 PM EDT
Moon 12:00 PM EDT (9/20) 10:13 PM EDT (9/20)
Length of Visible Light 13h 04m
Length of Day
12h 12m
Waxing Crescent, 26% of the Moon is Illuminated
Sep 20
Waxing Crescent
Sep 22
First Quarter
Sep 29
Full
Oct 8
Last Quarter
Oct 15
New

Hourly Weather History & Observations

Time (EDT) Temp. Dew Point Humidity Pressure Visibility Wind Dir Wind Speed Gust Speed Precip Events Conditions
12:54 AM 57.0 °F 51.1 °F 81% 30.14 in 10.0 mi North 4.6 mph - N/A   Clear
1:54 AM 57.0 °F 52.0 °F 83% 30.14 in 10.0 mi Calm Calm - N/A   Clear
2:54 AM 57.0 °F 53.1 °F 87% 30.12 in 10.0 mi Calm Calm - N/A   Clear
3:54 AM 57.0 °F 53.1 °F 87% 30.12 in 10.0 mi Calm Calm - N/A   Clear
4:54 AM 57.0 °F 54.0 °F 89% 30.12 in 10.0 mi Calm Calm - N/A   Clear
5:54 AM 57.0 °F 54.0 °F 89% 30.13 in 10.0 mi Calm Calm - N/A   Clear
6:54 AM 57.0 °F 54.0 °F 89% 30.14 in 10.0 mi Calm Calm - N/A   Clear
7:54 AM 60.1 °F 55.0 °F 83% 30.15 in 10.0 mi North 5.8 mph - N/A   Clear
8:54 AM 64.9 °F 57.0 °F 75% 30.16 in 10.0 mi North 4.6 mph - N/A   Clear
9:54 AM 70.0 °F 57.0 °F 63% 30.16 in 10.0 mi North 6.9 mph - N/A   Clear
10:54 AM 71.1 °F 55.0 °F 57% 30.16 in 10.0 mi Variable 4.6 mph - N/A   Scattered Clouds
11:54 AM 72.0 °F 54.0 °F 53% 30.15 in 10.0 mi NNE 8.1 mph - N/A   Clear
12:54 PM 73.9 °F 53.1 °F 48% 30.14 in 10.0 mi Variable 6.9 mph - N/A   Clear
1:54 PM 73.9 °F 52.0 °F 46% 30.12 in 10.0 mi NNE 6.9 mph - N/A   Clear
2:54 PM 73.0 °F 50.0 °F 44% 30.10 in 10.0 mi ENE 6.9 mph - N/A   Clear
3:54 PM 73.0 °F 51.1 °F 46% 30.08 in 10.0 mi NE 6.9 mph - N/A   Clear
4:54 PM 72.0 °F 52.0 °F 49% 30.09 in 10.0 mi East 8.1 mph - N/A   Clear
5:54 PM 69.1 °F 54.0 °F 58% 30.09 in 10.0 mi ENE 5.8 mph - N/A   Clear
6:54 PM 64.9 °F 57.0 °F 75% 30.08 in 10.0 mi Calm Calm - N/A   Clear
7:54 PM 62.1 °F 57.0 °F 84% 30.09 in 10.0 mi Calm Calm - N/A   Clear
8:54 PM 60.1 °F 55.9 °F 86% 30.09 in 10.0 mi Calm Calm - N/A   Clear
9:54 PM 60.1 °F 55.9 °F 86% 30.10 in 10.0 mi Calm Calm - N/A   Clear
10:54 PM 59.0 °F 55.9 °F 90% 30.09 in 10.0 mi Calm Calm - N/A   Clear
11:54 PM 57.9 °F 55.0 °F 90% 30.10 in 10.0 mi Calm Calm - N/A   Clear